Back to catalog

OPS 4682 DEB

AlivePO
NORAD 58027·DEBRIS·🇺🇸 United States

Launched Apr 3, 1965 from Vandenberg Space Force Base

Loading…

Next Passes (next 24 hours)

TLE

AgingSource: Space-Track

Epoch: Sep 8, 2026, 03:22 UTC

1 58027U 65027HQ  26251.14033411  .00000710  00000-0  23954-2 0  9998
2 58027  90.2575  17.5126 0034411 181.0455 357.4299 12.98051219587097

Track OPS 4682 DEB in real time with AllMySat

Download on the App Store